Dubuque, IA

6:51 AM CST on November 20, 2017 (GMT -0600)
Dubuque Regional

Weather History for KDBQ - June, 2013

Change the Weather History Date:

Saturday, June 29, 2013

  Actual Average Record
Temperature  
Mean Temperature 69 °F 72 °F  
Max Temperature 75 °F 82 °F 101 °F (1931)
Min Temperature 63 °F 61 °F 47 °F (1951)
Degree Days  
Heating Degree Days 0 0  
Month to date heating degree days 39 40  
Since 1 June heating degree days 39 40  
Since 1 July heating degree days 7296 7086  
Cooling Degree Days 4 7  
Month to date cooling degree days 106 133  
Year to date cooling degree days 151 170  
Since 1 June cooling degree days 106 133  
Growing Degree Days 20 (Base 50)    
Moisture  
Dew Point 62 °F    
Average Humidity 84    
Maximum Humidity 100    
Minimum Humidity 68    
Precipitation  
Precipitation 0.04 in 0.14 in 1.46 in (1959)
Month to date precipitation 3.63 4.27  
Year to date precipitation 25.21 17.14  
Snow  
Snow 0.00 in 0.00 in - ()
Month to date snowfall 0.0 0.0  
Since 1 June snowfall 0.0 0.0  
Since 1 July snowfall 54.5 41.9  
Snow Depth 0.00 in    
Sea Level Pressure  
Sea Level Pressure 29.72 in    
Wind  
Wind Speed 11 mph (North)    
Max Wind Speed 21 mph    
Max Gust Speed 28 mph    
Visibility 10 miles    
Events Rain    
T = Trace of Precipitation, MM = Missing Value Source: NWS Daily Summary

Daily Weather History Graph

Daily Weather History Graph

Search for Another Location

Airport or City:

Trip Planner

Search our weather history database for the weather conditions in past years. The results will help you decide how hot, cold, wet, or windy it might be!

Date:

Astronomy

Jun. 29, 2013 Rise Set
Actual Time 5:28 AM CDT 8:43 PM CDT
Civil Twilight 4:54 AM CDT 9:18 PM CDT
Nautical Twilight 4:09 AM CDT 10:03 PM CDT
Astronomical Twilight 3:14 AM CDT 10:57 PM CDT
Moon 12:04 AM CDT (6/29) 12:49 PM CDT (6/29)
Length of Visible Light 16h 24m
Length of Day
15h 15m
Waning Gibbous, 55% of the Moon is Illuminated
Jun 29
Waning Gibbous
Jun 29
Last Quarter
Jul 8
New
Jul 15
First Quarter
Jul 22
Full

Hourly Weather History & Observations

Time (CDT) Temp. Dew Point Humidity Pressure Visibility Wind Dir Wind Speed Gust Speed Precip Events Conditions
12:49 AM 64.4 °F 62.6 °F 94% 29.68 in 10.0 mi NNW 8.1 mph - N/A   Mostly Cloudy
12:53 AM 64.0 °F 62.1 °F 93% 29.67 in 10.0 mi NNW 9.2 mph - N/A   Mostly Cloudy
1:40 AM 64.4 °F 62.6 °F 94% 29.67 in 10.0 mi NNW 10.4 mph - N/A   Scattered Clouds
1:53 AM 64.0 °F 62.1 °F 93% 29.66 in 10.0 mi NNW 9.2 mph - N/A   Mostly Cloudy
2:15 AM 64.4 °F 62.6 °F 94% 29.68 in 10.0 mi NNW 9.2 mph - N/A   Scattered Clouds
2:53 AM 64.0 °F 62.1 °F 93% 29.66 in 10.0 mi NNW 8.1 mph - N/A   Mostly Cloudy
3:00 AM 64.4 °F 62.6 °F 94% 29.68 in 10.0 mi NNW 9.2 mph - N/A   Mostly Cloudy
3:12 AM 64.4 °F 62.6 °F 94% 29.68 in 10.0 mi NNW 8.1 mph - N/A   Overcast
3:41 AM 64.4 °F 62.6 °F 94% 29.68 in 10.0 mi NNW 10.4 mph - N/A   Overcast
3:53 AM 64.0 °F 63.0 °F 96% 29.67 in 10.0 mi North 10.4 mph - N/A   Overcast
4:53 AM 64.0 °F 63.0 °F 96% 29.67 in 10.0 mi North 9.2 mph - N/A   Overcast
5:05 AM 64.4 °F 62.6 °F 94% 29.68 in 10.0 mi NNW 8.1 mph - N/A   Overcast
5:53 AM 64.0 °F 63.0 °F 96% 29.68 in 10.0 mi NNW 9.2 mph - N/A   Overcast
6:31 AM 64.4 °F 62.6 °F 94% 29.70 in 10.0 mi NNW 9.2 mph - N/A   Overcast
6:53 AM 64.0 °F 63.0 °F 96% 29.69 in 10.0 mi NNW 9.2 mph - N/A   Overcast
7:18 AM 64.4 °F 62.6 °F 94% 29.70 in 9.0 mi NNW 10.4 mph - N/A   Overcast
7:34 AM 64.4 °F 62.6 °F 94% 29.71 in 10.0 mi North 11.5 mph - 0.00 in   Overcast
7:41 AM 64.4 °F 62.6 °F 94% 29.71 in 9.0 mi NNW 10.4 mph - 0.00 in   Overcast
7:53 AM 64.0 °F 64.0 °F 100% 29.70 in 9.0 mi North 9.2 mph - 0.00 in   Overcast
8:00 AM 64.4 °F 62.6 °F 94% 29.71 in 8.0 mi North 11.5 mph - 0.00 in Rain Light Rain
8:24 AM 64.4 °F 62.6 °F 94% 29.71 in 7.0 mi North 10.4 mph - 0.00 in Rain Light Rain
8:35 AM 64.4 °F 62.6 °F 94% 29.71 in 8.0 mi North 9.2 mph - 0.00 in Rain Light Rain
8:53 AM 64.0 °F 63.0 °F 96% 29.70 in 8.0 mi North 10.4 mph - 0.00 in Rain Light Rain
9:06 AM 64.4 °F 64.4 °F 100% 29.71 in 9.0 mi North 10.4 mph - 0.00 in Rain Light Rain
9:22 AM 64.4 °F 64.4 °F 100% 29.71 in 10.0 mi NNW 11.5 mph - 0.00 in   Overcast
9:51 AM 66.2 °F 64.4 °F 94% 29.71 in 10.0 mi North 10.4 mph - 0.00 in   Overcast
9:53 AM 66.0 °F 64.0 °F 93% 29.70 in 10.0 mi North 10.4 mph - 0.00 in   Overcast
9:56 AM 66.2 °F 64.4 °F 94% 29.71 in 10.0 mi NNW 9.2 mph - N/A   Overcast
10:53 AM 68.0 °F 62.1 °F 81% 29.70 in 10.0 mi North 9.2 mph - N/A   Mostly Cloudy
11:10 AM 68.0 °F 62.6 °F 83% 29.71 in 10.0 mi NNE 10.4 mph - N/A   Mostly Cloudy
11:19 AM 71.6 °F 62.6 °F 73% 29.71 in 10.0 mi North 15.0 mph - N/A   Mostly Cloudy
11:53 AM 68.0 °F 63.0 °F 84% 29.71 in 10.0 mi NNE 15.0 mph 20.7 mph 0.04 in   Overcast
12:53 PM 72.0 °F 62.1 °F 71% 29.71 in 10.0 mi NNE 15.0 mph 23.0 mph N/A   Scattered Clouds
1:53 PM 73.9 °F 63.0 °F 68% 29.71 in 10.0 mi NE 16.1 mph - N/A   Partly Cloudy
2:53 PM 72.0 °F 61.0 °F 68% 29.72 in 10.0 mi North 13.8 mph 20.7 mph N/A   Mostly Cloudy
3:53 PM 66.0 °F 62.1 °F 87% 29.75 in 10.0 mi North 13.8 mph - 0.00 in   Mostly Cloudy
4:53 PM 64.0 °F 62.1 °F 93% 29.77 in 10.0 mi NNE 9.2 mph - 0.00 in   Overcast
5:53 PM 68.0 °F 62.1 °F 81% 29.77 in 10.0 mi North 11.5 mph 21.9 mph 0.00 in   Mostly Cloudy
6:53 PM 70.0 °F 61.0 °F 73% 29.78 in 10.0 mi NNE 12.7 mph - N/A   Scattered Clouds
7:53 PM 68.0 °F 59.0 °F 73% 29.81 in 10.0 mi NNE 12.7 mph 19.6 mph N/A   Mostly Cloudy
8:53 PM 66.0 °F 57.9 °F 75% 29.82 in 10.0 mi North 9.2 mph 18.4 mph N/A   Overcast
9:53 PM 64.9 °F 57.9 °F 78% 29.84 in 10.0 mi North 11.5 mph - N/A   Overcast
10:53 PM 64.0 °F 57.9 °F 80% 29.86 in 10.0 mi NE 8.1 mph - N/A   Overcast
11:53 PM 63.0 °F 57.9 °F 84% 29.86 in 10.0 mi North 4.6 mph - 0.00 in   Overcast